Flag for Australia Weather past 2 weeks in Sydney, New South Wales, Australia

Now
55 °F

Rain showers. Broken clouds.


Feels Like: 53 °F
Forecast: 56 / 63 °F
Wind: 10 mph from West

Location: Sydney Airport

Current Time: Sep 4, 2015 at 8:13:54 AM

Latest Report: Sep 4, 2015 at 7:00 AM


Visibility: 6 mi

Pressure: 30.09 "Hg

Humidity: 94%

Dew point: 54 °F

Location of SydneyLocation

Historic Weather in Sydney — Graph

°F

Sydney temperature yesterday

Maximum temperature yesterday: 68 °F (at 2:00 PM)
Minimum temperature yesterday: 54 °F (at 6:00 AM)
Average temperature yesterday: 60 °F

Past Weeks' High & Low Weather Summary

 TemperatureHumidityPressure
High82 °F (Aug 22, 1:30 PM)100% (Aug 23, 8:30 PM)30.36 "Hg (Aug 23, 8:30 PM)
Low46 °F (Aug 30, 3:00 AM)23% (Aug 22, 3:00 PM)29.65 "Hg (Sep 3, 4:00 AM)
Average60 °F66%30.03 "Hg
* Reported Aug 20 6:00 AM — Sep 4 6:50 AM, Sydney, Weather by CustomWeather, © 2015

Note: Actual official high and low records may vary slightly from our data, if they occured in-between our weather recording intervals... More about our weather records

Advertising

Sydney weather history for previous 24 hours

 ConditionsComfort  
Time TempWeatherWind HumidityBarometerVisibility
6:50 AM
Fri, Sep 4
55 °FLight rain. Broken clouds.12 mph94%30.09 "HgN/A
6:30 AM55 °FRain showers. Partly sunny.17 mph94%30.09 "Hg3 mi
6:00 AM55 °FScattered showers. Broken clouds.21 mph94%30.09 "Hg4 mi
5:00 AM57 °FSprinkles. Partly cloudy.22 mph88%30.07 "HgN/A
4:30 AM55 °FPassing clouds.22 mph100%30.04 "HgN/A
4:00 AM57 °FSprinkles. Partly cloudy.17 mph94%30.04 "Hg4 mi
3:30 AM57 °FScattered showers. Partly cloudy.22 mph88%30.04 "HgN/A
3:00 AM55 °FSprinkles. Partly cloudy.20 mph94%30.01 "Hg5 mi
2:30 AM57 °FSprinkles. Partly cloudy.20 mph88%30.01 "Hg5 mi
2:00 AM59 °FPassing clouds.20 mph77%30.01 "HgN/A
1:00 AM57 °FScattered showers. Partly cloudy.22 mph88%29.98 "HgN/A
12:30 AM57 °FRain showers. Partly cloudy.21 mph88%29.98 "Hg4 mi
12:00 AM59 °FScattered showers. Passing clouds.22 mph77%29.95 "HgN/A
11:30 PM
Thu, Sep 3
57 °FSprinkles. Partly cloudy.26 mph82%29.95 "HgN/A
11:00 PM57 °FSprinkles. Partly cloudy.17 mph72%29.92 "HgN/A
10:30 PM57 °FPartly cloudy.17 mph72%29.92 "HgN/A
10:00 PM57 °FPartly cloudy.20 mph72%29.92 "HgN/A
9:30 PM57 °FSprinkles. Partly cloudy.22 mph72%29.92 "HgN/A
9:00 PM59 °FSprinkles. Partly cloudy.25 mph68%29.89 "HgN/A
8:30 PM61 °FSprinkles. Partly cloudy.26 mph55%29.89 "HgN/A
8:00 PM59 °FPassing clouds.17 mph59%29.86 "HgN/A
7:00 PM61 °FScattered showers. Partly cloudy.17 mph52%29.83 "HgN/A
6:30 PM59 °FPassing clouds.20 mph59%29.83 "HgN/A
6:00 PM61 °FScattered showers. Partly cloudy.22 mph48%29.80 "HgN/A
5:00 PM63 °FPassing clouds.21 mph45%29.74 "HgN/A
4:30 PM64 °FPartly sunny.23 mph40%29.74 "HgN/A
4:00 PM66 °FScattered clouds.24 mph35%29.71 "HgN/A
3:30 PM68 °FScattered clouds.20 mph30%29.71 "HgN/A
3:00 PM68 °FSunny.18 mph30%29.68 "Hg10 mi
2:30 PM68 °FSunny.17 mph30%29.68 "Hg10 mi
2:00 PM68 °FSunny.16 mph30%29.68 "Hg10 mi
1:30 PM66 °FScattered clouds.17 mph35%29.68 "HgN/A
1:00 PM66 °FPartly sunny.18 mph35%29.68 "HgN/A
12:30 PM64 °FPartly sunny.15 mph40%29.68 "HgN/A
12:00 PM64 °FPartly sunny.20 mph40%29.68 "HgN/A
11:30 AM63 °FBroken clouds.17 mph52%29.71 "HgN/A
11:00 AM64 °FBroken clouds.15 mph49%29.71 "HgN/A
10:30 AM63 °FPartly sunny.15 mph56%29.71 "HgN/A
10:00 AM63 °FBroken clouds.9 mph59%29.68 "HgN/A
9:30 AM61 °FBroken clouds.14 mph63%29.68 "HgN/A
9:00 AM59 °FScattered clouds.17 mph68%29.71 "HgN/A
8:30 AM57 °FPassing clouds.15 mph72%29.71 "HgN/A
8:00 AM55 °FPassing clouds.9 mph77%29.68 "HgN/A
Weather by CustomWeather, © 2015

See weather overviewHow to use our weather pages